Date String (YYYY-MM-DD hh:mm:ss) UTC,Instrument flags,Ambient pressure (hPa),Sample flow (lpm),Bypass flow (lpm),Sample temperature (°C),Ambient temperature (°C),ASC tube jacket temperature (°C),LED temperature (°C),Box temperature (°C),Sample RH (%),Span deviation,Mass concentration (μg/m³),Mass concentration (μg/m³),Mass concentration (μg/m³)
DateTimeUTC,F1_M11,P_M11,Q1_M11,Q2_M11,T1_M11,T2_M11,T3_M11,T4_M11,T5_M11,U1_M11,ZSPAN_M11,X2_M11,X0_M11,X1_M11
2022-01-10 02:00:00,,0839.0,4.99,0.00,23.5,22.7,00.0,32.6,25.2,12.2,0001.1,0007.80,0011.71,0007.23
2022-01-10 02:01:00,,0839.0,5.00,0.00,23.5,22.7,00.0,32.6,25.2,12.2,0000.8,0007.89,0011.88,0007.28
2022-01-10 02:02:00,,0839.1,5.01,0.00,23.5,22.7,00.0,32.6,25.2,12.2,0000.7,0007.91,0011.77,0007.31
2022-01-10 02:03:00,,0839.0,4.99,0.00,23.5,22.6,00.0,32.6,25.2,12.2,-000.2,0007.91,0011.68,0007.35
2022-01-10 02:04:00,,0839.0,5.00,0.00,23.5,22.6,00.0,32.6,25.2,12.3,-000.6,0007.97,0011.72,0007.42
2022-01-10 02:05:00,,0839.0,5.00,0.00,23.5,22.6,00.0,32.6,25.2,12.3,0000.3,0008.06,0011.90,0007.51
2022-01-10 02:06:00,,0839.0,5.00,0.00,23.5,22.6,00.0,32.5,25.1,12.3,0000.5,0008.14,0012.69,0007.59
2022-01-10 02:07:00,,0839.1,5.01,0.00,23.4,22.6,00.0,32.5,25.1,12.3,0000.8,0008.26,0013.58,0007.69
2022-01-10 02:08:00,,0839.2,5.00,0.00,23.4,22.6,00.0,32.5,25.1,12.3,0001.3,0008.34,0013.80,0007.79
2022-01-10 02:09:00,,0839.3,4.99,0.00,23.4,22.6,00.0,32.5,25.1,12.3,0000.5,0008.42,0013.81,0007.85
2022-01-10 02:10:00,,0839.3,5.01,0.00,23.4,22.6,00.0,32.5,25.1,12.3,-000.1,0008.49,0013.92,0007.88
2022-01-10 02:11:00,,0839.3,5.00,0.00,23.4,22.5,00.0,32.5,25.1,12.3,-000.2,0008.52,0013.96,0007.92
2022-01-10 02:12:00,,0839.3,5.01,0.00,23.4,22.5,00.0,32.5,25.1,12.3,0000.6,0008.54,0013.92,0007.96
2022-01-10 02:13:00,,0839.3,5.00,0.00,23.4,22.5,00.0,32.5,25.1,12.3,0001.7,0008.63,0014.01,0008.03
2022-01-10 02:14:00,,0839.3,5.00,0.00,23.4,22.5,00.0,32.4,25.1,12.3,0002.2,0008.73,0014.46,0008.11
2022-01-10 02:15:00,,0839.2,4.98,0.00,23.4,22.5,00.0,32.4,25.2,12.3,0001.4,0008.81,0014.63,0008.18
2022-01-10 02:16:00,,0839.1,5.00,0.00,23.4,22.5,00.0,32.4,25.2,12.3,0000.2,0008.87,0014.61,0008.25
2022-01-10 02:17:00,,0839.1,5.01,0.00,23.4,22.5,00.0,32.4,25.1,12.3,-000.3,0008.95,0013.92,0008.34
2022-01-10 02:18:00,,0839.2,5.00,0.00,23.4,22.5,00.0,32.4,25.1,12.3,-000.7,0009.02,0013.19,0008.41
2022-01-10 02:19:00,,0839.3,4.99,0.00,23.4,22.5,00.0,32.4,25.2,12.2,-001.0,0009.10,0013.30,0008.46
2022-01-10 02:20:00,,0839.4,5.02,0.00,23.4,22.5,00.0,32.4,25.1,12.2,-000.3,0009.19,0013.54,0008.54
2022-01-10 02:21:00,,0839.3,4.99,0.00,23.4,22.5,00.0,32.4,25.1,12.3,-000.6,0009.29,0013.64,0008.63
2022-01-10 02:22:00,,0839.3,5.00,0.00,23.3,22.5,00.0,32.4,25.1,12.3,-000.6,0009.37,0013.81,0008.71
2022-01-10 02:23:00,,0839.3,5.01,0.00,23.3,22.5,00.0,32.4,25.1,12.3,-001.0,0009.50,0014.71,0008.78
2022-01-10 02:24:00,,0839.3,4.99,0.00,23.3,22.5,00.0,32.4,25.1,12.3,-001.3,0009.63,0015.45,0008.83
2022-01-10 02:25:00,,0839.4,5.00,0.00,23.3,22.5,00.0,32.4,25.1,12.3,-001.1,0009.66,0016.04,0008.85
2022-01-10 02:26:00,,0839.4,5.01,0.00,23.3,22.5,00.0,32.4,25.1,12.3,-000.4,0009.73,0016.36,0008.88
2022-01-10 02:27:00,,0839.4,4.98,0.00,23.3,22.5,00.0,32.3,25.1,12.2,-000.2,0009.76,0016.45,0008.91
2022-01-10 02:28:00,,0839.3,5.00,0.00,23.3,22.5,00.0,32.3,25.1,12.2,0000.2,0009.80,0016.57,0008.94
2022-01-10 02:29:00,,0839.4,5.01,0.00,23.3,22.4,00.0,32.3,25.1,12.2,0000.8,0009.87,0016.75,0008.97
2022-01-10 02:30:00,,0839.4,4.99,0.00,23.3,22.4,00.0,32.3,25.1,12.2,0000.5,0009.87,0016.62,0008.99
2022-01-10 02:31:00,,0839.4,5.01,0.00,23.3,22.4,00.0,32.3,25.1,12.2,-000.3,0009.86,0016.48,0008.99
2022-01-10 02:32:00,,0839.4,5.00,0.00,23.3,22.4,00.0,32.3,25.1,12.1,-000.1,0009.86,0016.46,0008.97
2022-01-10 02:33:00,,0839.4,5.00,0.00,23.3,22.4,00.0,32.3,25.1,12.1,-000.1,0009.86,0016.44,0008.98
2022-01-10 02:34:00,,0839.4,4.99,0.00,23.3,22.4,00.0,32.3,25.1,12.1,-000.1,0009.84,0016.04,0009.02
2022-01-10 02:35:00,,0839.4,5.00,0.00,23.3,22.4,00.0,32.3,25.1,12.1,-000.3,0009.80,0015.58,0009.08
2022-01-10 02:36:00,,0839.5,5.01,0.00,23.3,22.4,00.0,32.3,25.0,12.1,-000.5,0009.86,0014.93,0009.14
2022-01-10 02:37:00,,0839.5,5.00,0.00,23.3,22.4,00.0,32.3,25.1,12.1,-000.6,0009.88,0014.70,0009.17
2022-01-10 02:38:00,,0839.5,5.00,0.00,23.3,22.4,00.0,32.3,25.0,12.2,-000.4,0009.93,0014.89,0009.20
2022-01-10 02:39:00,,0839.5,5.00,0.00,23.3,22.4,00.0,32.3,25.0,12.2,-000.4,0009.95,0015.02,0009.23
2022-01-10 02:40:00,,0839.5,4.99,0.00,23.3,22.4,00.0,32.3,25.0,12.2,-000.7,0009.98,0015.31,0009.25
2022-01-10 02:41:00,,0839.5,5.00,0.00,23.3,22.4,00.0,32.2,25.0,12.2,-000.6,0010.06,0015.43,0009.30
2022-01-10 02:42:00,,0839.6,4.99,0.00,23.3,22.4,00.0,32.2,25.0,12.2,0000.1,0010.10,0015.63,0009.34
2022-01-10 02:43:00,,0839.6,5.02,0.00,23.2,22.4,00.0,32.2,25.0,12.2,0000.6,0010.14,0016.11,0009.41
2022-01-10 02:44:00,,0839.6,4.99,0.00,23.2,22.4,00.0,32.2,25.0,12.2,0000.7,0010.21,0017.09,0009.45
2022-01-10 02:45:00,,0839.6,5.01,0.00,23.2,22.3,00.0,32.2,25.0,12.2,0001.1,0010.29,0016.96,0009.48
2022-01-10 02:46:00,,0839.6,4.99,0.00,23.2,22.3,00.0,32.2,25.0,12.2,0001.0,0010.29,0016.94,0009.46
2022-01-10 02:47:00,,0839.6,5.01,0.00,23.2,22.3,00.0,32.2,25.0,12.2,0000.8,0010.24,0016.90,0009.44
2022-01-10 02:48:00,,0839.6,4.99,0.00,23.2,22.3,00.0,32.2,25.0,12.2,0000.4,0010.17,0017.39,0009.39
2022-01-10 02:49:00,,0839.6,5.01,0.00,23.2,22.3,00.0,32.2,25.0,12.2,0000.6,0010.06,0017.10,0009.30
2022-01-10 02:50:00,,0839.5,4.99,0.00,23.2,22.3,00.0,32.2,25.0,12.2,0000.9,0010.02,0017.07,0009.27
2022-01-10 02:51:00,,0839.5,5.02,0.00,23.2,22.3,00.0,32.2,24.9,12.2,0002.2,0010.02,0017.66,0009.28
2022-01-10 02:52:00,,0839.5,4.98,0.00,23.2,22.3,00.0,32.2,24.9,12.3,0002.7,0010.00,0017.76,0009.26
2022-01-10 02:53:00,,0839.6,5.00,0.00,23.1,22.3,00.0,32.2,24.9,12.3,0002.3,0009.95,0017.56,0009.21
2022-01-10 02:54:00,,0839.6,5.01,0.00,23.1,22.2,00.0,32.2,24.8,12.3,0001.9,0009.81,0016.89,0009.09
2022-01-10 02:55:00,,0839.6,5.00,0.00,23.1,22.2,00.0,32.2,24.8,12.4,0002.0,0009.73,0015.97,0009.03
2022-01-10 02:56:00,,0839.7,5.00,0.00,23.1,22.2,00.0,32.1,24.8,12.4,0002.0,0009.57,0015.82,0008.94
2022-01-10 02:57:00,,0839.6,4.99,0.00,23.0,22.2,00.0,32.1,24.7,12.4,0001.7,0009.40,0015.74,0008.81
2022-01-10 02:58:00,,0839.6,5.01,0.00,23.0,22.1,00.0,32.1,24.7,12.5,0002.0,0009.26,0015.73,0008.69
2022-01-10 02:59:00,,0839.7,5.00,0.00,23.0,22.1,00.0,32.1,24.7,12.5,0002.4,0009.22,0015.27,0008.64
